User: anonymous   Login
Location: Unspecified
(0.0000°N, 0.0000°E)
Time: 17:06:13
(UTC+00:00)
Language:

KKS-1 - Orbit

View from above orbital plane
View from above orbital plane
View from above satellite
View from above satellite

Ground track
Ground track

The orbit data is extracted from the following two-line orbital elements,

1 33499U 09002H   17264.93504077 +.00000122 +00000-0 +26173-4 0  9992
2 33499 098.3417 073.2087 0010406 069.5013 290.7311 14.75229243465203
Epoch (UTC): 21 September 2017 22:26:27
Eccentricity: 0.0010406
inclination: 98.3417°
perigee height: 637 km
apogee height: 652 km
right ascension of ascending node: 73.2087°
argument of perigee: 69.5013°
revolutions per day: 14.75229243
mean anomaly at epoch: 290.7311°
orbit number at epoch: 46520

The dashed part of the orbit path shows where the satellite is in the earth's shadow,  

DLR